Total_Precipitation_Accumulation
1.33 1.45 1.27 0.91 0.76 0.68 0.60 0.50 0.45 0.32 0.25 0.32 0.29 0.20 0.15 0.15 0.16 0.15 0.15 0.19 0.19 0.19 0.20 0.27 0.36 0.47 0.53 0.59 0.65 0.72 0.81 0.90 1.07 1.21 1.27 1.26 1.35 1.30 1.18 1.09 1.09 1.10 1.09 1.01
1.36 1.12 0.61 0.45 0.48 0.59 0.67 0.64 0.48 0.35 0.29 0.35 0.29 0.19 0.13 0.12 0.14 0.14 0.14 0.17 0.18 0.20 0.24 0.27 0.38 0.51 0.53 0.54 0.61 0.69 0.74 0.81 0.87 0.93 1.06 1.13 1.15 1.20 1.18 1.11 1.08 1.11 1.11 1.04
0.94 0.63 0.37 0.46 0.58 0.70 0.71 0.64 0.50 0.43 0.38 0.40 0.38 0.31 0.15 0.11 0.11 0.12 0.14 0.16 0.16 0.18 0.22 0.24 0.32 0.48 0.53 0.53 0.59 0.65 0.72 0.75 0.84 0.92 1.06 1.16 1.25 1.27 1.23 1.13 1.04 1.04 1.08 1.07
0.64 0.42 0.45 0.57 0.59 0.64 0.71 0.47 0.45 0.47 0.61 0.70 0.53 0.57 0.20 0.12 0.13 0.12 0.14 0.16 0.17 0.19 0.21 0.24 0.28 0.40 0.50 0.51 0.60 0.69 0.77 0.85 0.86 0.94 1.03 1.03 1.00 1.02 0.96 0.99 0.98 1.00 1.02 1.02
0.72 0.47 0.55 0.64 0.48 0.46 0.52 0.43 0.51 0.58 0.71 0.79 0.55 0.57 0.24 0.12 0.17 0.17 0.17 0.18 0.19 0.20 0.20 0.20 0.24 0.33 0.46 0.53 0.62 0.74 0.76 0.88 0.94 0.95 1.00 1.00 0.95 0.90 0.93 1.00 1.06 1.06 1.05 1.04
0.57 0.45 0.53 0.48 0.37 0.40 0.51 0.66 0.86 0.93 1.21 1.32 0.53 0.44 0.27 0.17 0.20 0.18 0.16 0.18 0.22 0.23 0.23 0.23 0.24 0.30 0.41 0.49 0.59 0.67 0.77 0.83 0.96 0.97 0.99 0.98 0.93 0.88 0.92 0.96 1.06 1.09 1.09 1.10
0.86 0.64 0.59 0.52 0.64 0.71 0.87 1.31 2.04 2.28 2.19 1.24 0.28 0.29 0.28 0.16 0.14 0.16 0.15 0.16 0.23 0.27 0.29 0.28 0.25 0.28 0.35 0.45 0.55 0.62 0.69 0.83 0.90 0.91 0.93 0.94 0.92 0.87 0.88 0.91 0.97 1.01 1.03 1.07
1.04 0.88 0.64 0.64 0.79 0.96 0.94 1.08 1.45 1.52 1.10 0.46 0.19 0.22 0.19 0.12 0.08 0.09 0.10 0.12 0.15 0.20 0.29 0.30 0.26 0.28 0.33 0.41 0.50 0.60 0.66 0.78 0.87 0.87 0.87 0.90 0.90 0.87 0.85 0.88 0.90 0.95 0.90 0.92
1.03 0.79 0.49 0.48 0.47 0.61 0.87 0.87 0.72 0.93 0.66 0.39 0.28 0.19 0.14 0.09 0.08 0.08 0.12 0.14 0.14 0.15 0.23 0.30 0.27 0.31 0.35 0.43 0.48 0.57 0.67 0.77 0.87 0.91 0.87 0.88 0.89 0.89 0.83 0.85 0.88 0.94 0.92 0.85
1.15 0.94 0.54 0.51 0.58 0.69 0.76 0.81 0.96 1.32 1.09 0.61 0.30 0.19 0.21 0.16 0.12 0.10 0.14 0.17 0.17 0.16 0.20 0.26 0.25 0.31 0.38 0.43 0.47 0.53 0.64 0.73 0.82 0.88 0.89 0.91 0.94 0.93 0.89 0.87 0.86 0.85 0.90 0.92
1.08 1.12 0.81 0.76 0.91 0.89 0.82 1.03 1.28 1.32 0.98 0.78 0.48 0.32 0.28 0.21 0.14 0.12 0.13 0.17 0.19 0.17 0.20 0.23 0.24 0.30 0.37 0.43 0.44 0.48 0.56 0.68 0.78 0.82 0.84 0.88 0.98 0.97 0.97 0.96 0.90 0.84 0.83 0.91
1.09 1.30 1.04 0.76 0.63 0.57 0.71 0.88 1.05 1.31 1.03 0.61 0.56 0.41 0.27 0.19 0.15 0.13 0.12 0.15 0.19 0.19 0.20 0.20 0.22 0.29 0.34 0.38 0.42 0.47 0.53 0.57 0.70 0.80 0.82 0.84 0.95 1.01 0.99 1.05 1.04 0.93 0.85 0.86
1.40 1.66 1.51 1.26 1.08 0.88 0.90 0.81 0.84 0.92 0.96 0.73 0.62 0.43 0.26 0.19 0.15 0.12 0.12 0.13 0.16 0.20 0.23 0.20 0.21 0.26 0.32 0.37 0.41 0.44 0.50 0.53 0.61 0.77 0.82 0.85 0.90 0.99 1.00 1.03 1.11 1.09 1.06 1.08
1.62 1.73 1.29 1.21 1.10 0.99 0.93 0.70 0.69 0.94 1.15 0.78 0.50 0.38 0.28 0.23 0.19 0.16 0.15 0.14 0.17 0.22 0.22 0.20 0.21 0.24 0.30 0.36 0.40 0.41 0.43 0.52 0.59 0.73 0.85 0.87 0.90 0.93 0.97 1.02 1.07 1.18 1.25 1.33
1.58 1.52 0.71 0.45 0.42 0.50 0.57 0.49 0.52 0.68 0.70 0.62 0.39 0.35 0.39 0.31 0.25 0.23 0.20 0.18 0.19 0.23 0.21 0.20 0.21 0.25 0.29 0.33 0.36 0.36 0.38 0.45 0.55 0.69 0.79 0.87 0.92 1.03 1.10 1.12 1.14 1.18 1.31 1.40
1.45 1.40 0.70 0.41 0.29 0.35 0.41 0.33 0.34 0.38 0.36 0.39 0.33 0.38 0.39 0.31 0.24 0.22 0.21 0.21 0.21 0.25 0.23 0.22 0.23 0.27 0.30 0.32 0.34 0.32 0.34 0.41 0.50 0.65 0.72 0.80 0.95 1.06 1.20 1.22 1.26 1.27 1.32 1.41
1.25 1.20 1.05 0.69 0.34 0.51 0.63 0.41 0.34 0.35 0.34 0.34 0.40 0.43 0.36 0.32 0.29 0.26 0.24 0.24 0.24 0.23 0.24 0.23 0.25 0.29 0.33 0.32 0.32 0.32 0.34 0.38 0.44 0.56 0.67 0.74 0.88 1.00 1.10 1.14 1.17 1.20 1.14 1.13
1.00 1.09 1.34 0.99 0.74 1.05 0.59 0.31 0.28 0.30 0.35 0.34 0.36 0.37 0.34 0.35 0.34 0.30 0.26 0.25 0.24 0.23 0.24 0.24 0.25 0.27 0.30 0.32 0.32 0.32 0.32 0.36 0.43 0.51 0.63 0.67 0.77 0.91 0.96 1.03 1.07 1.08 1.01 0.99
0.60 1.03 1.53 1.31 1.01 0.63 0.31 0.24 0.32 0.38 0.46 0.37 0.32 0.31 0.30 0.30 0.32 0.36 0.31 0.26 0.26 0.24 0.23 0.24 0.24 0.25 0.25 0.29 0.31 0.32 0.32 0.34 0.39 0.46 0.56 0.60 0.68 0.84 0.85 0.92 1.01 1.00 1.00 0.98
0.60 1.00 1.63 1.42 1.09 0.60 0.32 0.18 0.22 0.35 0.56 0.35 0.28 0.31 0.33 0.32 0.48 0.47 0.38 0.32 0.29 0.24 0.22 0.24 0.25 0.22 0.23 0.26 0.26 0.26 0.27 0.30 0.37 0.44 0.51 0.55 0.60 0.73 0.74 0.75 0.81 0.86 0.87 0.90
0.95 1.38 1.55 1.17 0.91 0.45 0.27 0.20 0.23 0.60 0.71 0.34 0.29 0.31 0.32 0.38 0.49 0.44 0.38 0.34 0.29 0.28 0.26 0.25 0.25 0.25 0.25 0.26 0.26 0.26 0.25 0.27 0.32 0.38 0.44 0.50 0.55 0.62 0.63 0.66 0.68 0.73 0.78 0.82
0.67 0.93 0.94 0.87 0.95 0.55 0.27 0.28 0.50 0.62 0.36 0.28 0.28 0.28 0.29 0.29 0.28 0.30 0.32 0.32 0.29 0.30 0.30 0.28 0.28 0.27 0.27 0.27 0.26 0.24 0.25 0.27 0.29 0.35 0.41 0.46 0.52 0.55 0.57 0.61 0.66 0.68 0.76 0.87
0.48 0.61 0.66 0.65 0.61 0.45 0.34 0.39 0.41 0.32 0.27 0.24 0.26 0.27 0.28 0.28 0.27 0.29 0.29 0.29 0.28 0.29 0.30 0.28 0.29 0.31 0.31 0.30 0.29 0.25 0.24 0.27 0.31 0.37 0.41 0.47 0.51 0.50 0.57 0.63 0.69 0.73 0.79 0.89
0.38 0.35 0.42 0.40 0.33 0.28 0.29 0.28 0.27 0.24 0.22 0.21 0.22 0.27 0.26 0.27 0.26 0.27 0.26 0.27 0.29 0.28 0.27 0.25 0.28 0.31 0.33 0.32 0.30 0.27 0.25 0.29 0.33 0.38 0.40 0.46 0.54 0.55 0.55 0.61 0.69 0.73 0.77 0.91
0.32 0.31 0.37 0.34 0.26 0.22 0.21 0.21 0.23 0.23 0.19 0.17 0.19 0.22 0.22 0.23 0.24 0.25 0.27 0.27 0.28 0.29 0.27 0.25 0.27 0.28 0.31 0.30 0.28 0.27 0.28 0.32 0.37 0.39 0.41 0.47 0.56 0.59 0.56 0.58 0.64 0.71 0.73 0.94
0.24 0.29 0.35 0.31 0.22 0.23 0.20 0.17 0.16 0.18 0.18 0.17 0.20 0.22 0.21 0.21 0.24 0.24 0.25 0.26 0.26 0.27 0.27 0.26 0.24 0.26 0.27 0.26 0.26 0.28 0.30 0.35 0.42 0.44 0.46 0.50 0.57 0.59 0.58 0.58 0.63 0.71 0.74 0.81